Theta_e
282 281 281 281 281 280 280 280 280 280 280 280 280 280 281 281 282 282 283 284 284 284 284 284 284 285 285 286 286 287 288 289 289 290 291 292 293 294 295 295 296 297 298 299 300 300 301 301 302 302 302 303 303 304 305 306 307 309 311 313 314 314 314 314 314 315 317 320 324 327 329 330 332 333 335 336 337 338 338 338 338 338 337 336 335 335
281 281 281 281 281 280 280 280 280 280 280 280 280 280 281 281 282 282 283 284 284 284 284 284 284 285 285 285 286 286 287 288 289 290 291 292 293 294 295 295 296 297 298 299 299 300 300 301 301 302 302 303 303 304 305 306 307 308 310 312 313 313 313 314 314 315 316 318 322 326 329 330 331 332 334 335 336 337 337 338 338 338 337 336 335 335
281 281 281 281 280 280 280 280 280 280 280 280 280 281 281 281 282 283 283 284 284 284 284 284 284 285 285 285 285 286 287 287 288 290 291 292 293 294 295 296 296 297 298 298 299 300 300 300 301 301 302 302 303 304 305 306 307 308 310 311 312 313 313 313 314 314 315 317 320 324 328 330 331 332 334 335 335 336 336 336 337 337 338 337 336 336
281 281 281 281 280 280 280 280 280 280 280 280 280 281 281 281 282 283 283 284 284 284 284 284 284 284 284 284 285 285 286 287 288 290 291 291 292 293 294 295 296 296 297 298 299 299 300 300 300 301 302 303 303 304 305 306 307 308 309 311 312 313 313 313 313 314 314 316 319 323 327 329 331 332 333 334 335 334 334 334 334 335 336 337 337 336
282 281 281 281 280 280 280 280 280 280 280 280 280 281 281 281 282 283 283 284 284 284 284 284 284 284 284 284 284 285 286 287 288 289 290 291 292 292 293 294 295 296 297 298 299 299 300 300 301 301 302 303 303 304 305 306 307 308 309 310 311 312 313 313 313 313 314 315 317 322 327 329 331 332 333 334 334 334 333 332 332 333 334 336 336 337
282 282 281 281 280 280 280 280 280 280 280 280 280 281 281 281 282 282 283 284 284 284 284 284 283 283 284 284 284 285 286 287 288 288 289 290 291 292 293 294 295 296 297 298 299 300 300 300 301 301 302 302 303 304 305 306 307 308 309 310 311 312 312 313 313 313 313 314 316 320 325 329 331 332 332 334 334 334 333 331 331 331 332 334 335 336
282 282 281 281 280 280 280 280 280 280 280 280 280 281 281 281 281 282 283 284 284 283 283 283 283 283 283 284 284 285 285 286 287 287 288 289 290 292 293 294 295 296 297 298 299 299 300 300 300 301 301 302 303 304 305 306 307 308 309 310 311 312 312 312 312 312 313 313 315 319 324 329 332 332 332 334 334 334 333 331 330 330 331 333 334 335
282 282 281 281 280 280 280 280 280 280 280 280 280 280 280 281 282 282 283 283 283 283 283 283 283 283 283 284 284 284 285 285 286 287 288 289 290 291 293 294 295 296 296 297 298 299 299 300 300 300 301 302 303 304 305 306 307 308 309 310 311 312 312 312 312 312 312 313 315 318 323 328 331 332 333 334 334 334 334 332 331 330 331 332 333 334
282 281 281 280 280 280 280 280 280 280 280 280 280 280 281 281 282 282 283 283 283 282 282 283 283 283 283 283 284 284 285 285 286 287 288 289 290 291 293 294 294 294 295 295 296 297 298 299 300 300 301 302 303 304 305 306 307 307 308 310 311 312 312 311 311 311 312 313 314 317 321 327 331 332 333 333 334 334 333 332 331 331 332 333 334 334
281 281 280 280 280 280 280 280 280 280 280 280 280 280 281 281 282 282 282 282 282 282 282 282 283 283 283 283 284 284 285 285 286 287 289 290 291 292 292 292 292 292 292 293 294 296 297 298 299 300 301 302 304 305 306 306 307 307 308 310 311 312 312 311 311 311 312 313 314 316 320 325 330 332 333 333 334 334 333 332 332 332 333 334 334 335
281 280 280 280 280 280 280 280 280 280 280 280 280 280 280 281 281 282 282 282 282 282 282 282 282 283 283 283 284 284 285 285 286 287 289 290 290 290 290 290 290 290 291 292 294 295 297 298 299 300 301 302 304 305 306 307 307 307 309 310 311 312 312 311 311 311 311 312 314 315 319 324 329 332 333 333 333 333 333 332 332 332 334 334 335 335
280 280 280 280 280 280 280 280 280 280 280 280 280 280 280 280 281 281 281 282 282 282 282 282 282 282 282 283 283 284 285 286 287 288 289 288 288 288 288 288 289 290 291 292 294 295 297 298 299 300 301 302 303 305 306 307 307 308 309 311 312 312 312 311 311 311 311 312 313 315 318 322 327 331 333 333 333 333 333 333 333 334 334 335 335 336
280 280 280 280 280 280 280 280 280 280 280 280 280 280 280 280 280 280 281 281 282 282 282 282 282 282 282 283 284 284 285 286 288 288 288 287 286 286 287 287 288 289 290 291 293 295 296 298 299 300 301 302 303 305 306 306 307 308 309 311 312 313 312 312 311 311 311 312 313 315 317 321 326 330 332 333 333 333 333 333 334 334 335 335 336 336
280 280 280 280 280 279 279 280 280 280 280 280 280 280 280 280 280 280 281 281 282 282 281 281 282 282 283 283 284 284 285 287 287 287 286 285 286 286 286 287 288 288 289 290 292 294 296 297 299 300 301 302 303 304 306 306 307 308 310 311 312 313 312 312 311 311 311 312 313 314 316 320 325 329 331 332 333 333 334 334 334 335 335 335 336 336
280 280 280 280 280 279 279 280 280 280 280 280 280 279 279 279 280 280 281 281 281 281 281 281 282 282 283 283 284 284 285 286 286 285 285 285 285 286 286 286 287 288 289 289 291 293 295 297 298 299 300 301 303 304 305 306 307 309 310 311 312 313 312 312 311 311 311 312 313 314 316 319 324 328 331 332 332 333 333 334 335 334 335 335 336 336
280 280 280 280 280 280 279 280 280 280 280 280 279 279 279 279 279 280 281 281 281 281 281 281 282 282 283 283 283 284 284 285 284 284 284 285 285 285 286 286 287 288 288 289 290 292 294 296 297 298 299 301 302 304 305 306 307 309 310 311 312 312 312 312 311 311 310 311 313 314 315 319 323 327 330 332 332 332 333 334 334 334 334 335 335 335
280 280 280 280 280 280 280 281 281 280 280 279 279 279 279 279 279 280 280 281 281 281 281 281 282 283 283 283 283 283 284 284 284 284 284 284 285 285 285 286 287 287 288 289 290 292 294 295 297 297 299 300 302 303 304 306 307 309 310 311 312 312 312 312 311 310 310 311 312 314 315 318 322 327 330 332 332 332 333 333 334 334 334 334 335 335
280 280 280 280 280 281 281 280 280 280 279 279 279 279 279 279 279 280 280 280 280 280 281 281 282 282 283 283 283 283 283 283 283 283 284 284 284 285 285 286 286 287 288 289 290 292 293 295 296 297 298 299 301 302 304 305 307 308 309 310 311 312 312 311 311 310 310 311 312 314 315 318 322 326 330 331 332 332 332 333 334 334 334 334 334 334
280 280 280 280 280 280 280 280 279 279 279 279 279 279 279 279 279 279 280 280 280 280 281 281 282 282 283 283 282 282 282 283 283 283 284 284 284 285 285 286 286 287 288 290 291 292 293 294 295 296 298 299 300 302 303 305 307 308 309 310 311 311 311 311 311 310 310 311 312 314 315 317 321 326 329 330 331 332 332 333 333 333 333 333 333 334
280 280 280 280 280 279 279 279 279 279 279 279 279 279 279 279 279 279 280 280 280 280 281 281 282 282 282 283 282 282 282 282 283 283 284 284 285 285 285 286 287 288 289 290 291 292 293 294 295 296 297 298 299 301 303 305 307 308 309 310 310 311 311 311 310 310 310 311 312 314 315 317 321 325 328 329 330 331 332 333 333 333 333 333 333 333
280 279 279 279 279 279 279 279 279 279 279 279 279 279 279 279 279 279 280 280 280 281 281 282 282 282 283 283 282 282 282 282 283 283 284 284 285 285 286 286 288 289 291 291 292 292 293 293 294 295 296 297 299 301 303 305 306 308 308 309 310 311 311 311 311 310 310 311 312 314 315 317 320 325 327 328 329 330 332 332 333 333 333 333 333 333
279 279 279 279 279 279 280 280 279 279 279 279 279 279 279 279 279 280 280 280 281 281 281 282 282 283 283 282 282 282 282 282 283 284 284 285 285 285 286 288 289 290 291 290 290 291 292 292 293 295 296 297 299 301 303 305 306 307 309 310 310 311 311 311 311 310 311 311 312 314 314 316 320 324 327 328 329 330 331 332 332 333 333 333 333 333
279 279 280 280 280 280 279 279 279 279 279 279 279 279 279 279 279 280 280 280 281 281 282 282 283 282 282 282 282 282 282 283 284 284 284 285 285 286 287 288 288 289 289 289 290 290 291 292 293 294 295 297 299 301 304 305 307 308 309 310 311 312 312 311 311 311 311 312 313 314 314 316 320 324 326 327 328 330 331 331 332 332 332 333 333 333
280 280 280 280 280 279 279 279 279 279 279 279 279 279 279 279 280 280 280 281 281 282 282 282 282 282 282 282 282 283 283 283 283 284 284 285 286 286 286 287 287 288 288 289 290 290 291 292 293 294 295 297 300 302 304 306 307 309 310 311 312 312 312 312 312 312 313 313 314 314 314 316 320 324 326 327 328 330 330 331 332 332 332 333 333 333
280 280 279 280 280 280 280 280 281 281 282 282 282 281 281 281 281 281 282 282 282 282 282 282 282 282 282 282 282 283 283 283 283 284 284 285 285 285 286 286 287 288 289 289 289 290 290 291 292 293 295 297 300 303 305 307 308 310 311 312 312 312 312 312 313 313 314 314 314 314 315 318 321 324 326 328 329 330 330 331 331 332 332 332 332 332
279 280 280 280 280 281 281 281 282 282 282 282 282 282 282 283 282 282 282 282 282 282 282 282 282 282 282 282 282 282 282 282 283 284 284 285 285 285 286 286 287 288 288 289 289 289 290 290 291 293 295 298 301 304 306 308 309 311 312 312 312 312 313 313 314 314 314 314 314 315 317 319 322 325 327 328 329 330 330 331 332 332 332 332 332 332
279 279 279 280 280 280 280 280 280 280 281 281 281 282 282 282 282 282 282 282 282 282 282 282 282 282 282 281 281 282 282 282 283 283 283 284 284 285 286 287 287 288 288 288 288 289 289 290 291 293 296 298 302 305 307 309 310 312 312 312 313 313 313 314 314 314 314 315 315 317 319 321 324 326 327 328 329 330 331 331 332 332 332 332 332 332
278 278 278 278 278 279 279 279 280 280 280 280 281 281 281 281 282 282 282 282 282 282 282 282 282 281 281 281 281 281 282 282 282 282 283 284 285 286 287 287 287 287 287 288 288 288 289 290 292 294 297 300 303 306 308 310 311 312 313 313 313 313 314 314 314 314 315 316 318 320 322 324 325 326 327 329 330 330 331 331 332 332 332 331 331 331
277 277 277 277 278 278 278 278 278 278 279 279 280 280 281 281 281 281 281 281 281 281 281 281 281 281 281 281 281 281 281 282 282 283 284 285 286 286 286 286 286 286 287 287 288 288 290 291 294 296 299 303 305 307 309 311 312 313 313 313 313 313 314 314 314 314 316 318 320 322 324 325 326 327 328 329 330 331 331 332 331 331 331 330 330 329
276 276 277 277 277 277 277 277 277 277 278 278 279 280 280 280 280 279 279 279 279 280 280 280 280 281 281 281 281 281 281 282 283 284 285 285 285 285 285 285 286 286 287 287 288 289 290 292 295 298 302 305 307 308 310 312 313 313 313 313 313 313 314 314 314 315 317 319 321 323 325 326 327 327 328 329 330 331 331 331 331 330 329 328 328 328
276 276 276 276 277 277 277 277 277 277 277 278 278 278 278 278 278 278 278 279 279 279 280 280 280 280 281 281 281 281 282 282 284 284 283 283 284 284 284 285 285 286 286 287 287 288 289 291 294 297 302 306 310 311 312 313 313 313 312 313 313 313 314 314 314 315 317 319 321 323 325 326 327 328 328 329 330 331 331 331 330 329 328 327 327 328
276 276 276 276 277 277 277 277 277 277 277 277 277 277 277 278 278 278 278 278 279 279 279 279 280 280 280 280 280 281 281 281 282 282 282 283 283 284 284 285 285 285 286 286 286 287 288 289 291 292 294 299 306 312 313 313 313 312 312 313 313 313 314 314 314 315 317 319 320 322 324 326 327 328 329 329 330 330 331 331 330 329 328 327 327 327
276 276 276 276 277 277 277 277 277 277 277 277 277 277 277 278 278 278 278 278 279 279 279 279 279 280 280 280 280 280 280 281 281 281 282 282 283 284 284 284 285 285 285 286 286 287 287 288 289 289 289 292 300 308 312 313 312 312 312 312 313 313 314 314 314 315 317 318 319 321 323 325 327 329 329 329 330 330 330 330 330 329 328 327 327 327
276 276 276 277 277 277 277 277 277 277 277 277 277 277 277 278 278 278 278 278 278 279 279 279 279 279 280 280 280 280 280 280 281 281 282 282 283 284 284 284 284 285 285 285 286 287 287 288 288 289 289 291 297 305 312 313 313 312 312 313 313 314 314 314 314 315 317 318 319 320 322 324 327 328 329 329 329 329 329 329 329 329 328 328 328 327
276 276 277 277 277 277 277 277 277 277 277 277 277 277 277 278 278 278 278 278 278 278 279 279 279 279 279 280 280 280 280 281 281 281 282 282 283 283 284 284 284 284 285 285 286 286 287 288 289 289 289 290 295 304 312 313 313 313 313 313 313 313 314 314 314 315 316 318 318 319 321 323 325 326 327 327 328 328 328 329 329 328 328 328 328 328
276 276 277 277 277 277 277 277 277 277 277 277 277 277 277 277 278 278 278 278 278 278 279 279 279 279 279 279 280 280 280 281 281 281 282 282 283 283 283 284 284 284 285 285 285 286 287 288 288 289 288 290 295 304 311 313 313 313 313 313 313 313 313 314 314 314 315 317 318 319 320 322 323 324 324 326 327 328 328 328 328 328 328 328 328 328
276 277 277 277 277 277 277 277 277 277 277 277 277 277 278 278 278 278 278 278 279 279 279 279 279 279 280 280 280 280 280 281 281 282 282 282 282 283 283 283 284 284 284 285 285 286 286 287 288 289 289 290 296 305 312 313 313 313 313 312 313 313 313 314 314 314 315 316 318 319 320 321 322 323 323 324 326 327 327 327 327 327 327 328 328 328
277 277 277 277 277 277 277 277 277 277 277 277 277 278 278 278 278 278 279 279 279 279 279 280 280 280 280 280 280 281 281 281 282 282 283 283 283 282 283 283 283 284 284 285 285 286 286 287 288 289 290 292 299 307 312 312 312 312 312 312 313 313 313 314 314 315 315 317 318 319 320 321 322 323 323 323 324 325 325 325 326 326 327 327 328 328
277 277 277 277 277 277 277 277 277 277 277 277 278 278 278 278 278 279 279 279 280 280 280 280 280 281 281 281 281 282 282 282 283 283 284 284 283 283 283 283 284 284 285 285 285 286 286 287 288 288 290 292 298 306 312 312 311 311 312 313 313 313 314 314 314 315 316 317 319 320 320 321 322 322 323 322 322 323 323 324 325 326 326 326 327 327
277 277 277 277 277 277 277 277 277 277 278 278 278 278 278 278 279 279 279 280 280 280 281 281 281 282 282 282 282 283 283 284 284 284 285 285 284 284 284 284 285 285 285 286 286 286 286 287 288 288 289 289 292 298 307 311 311 312 312 313 313 313 313 314 315 315 316 318 319 320 320 321 321 322 322 322 322 323 323 324 325 325 326 326 326 326
277 277 277 277 277 277 277 277 277 278 278 278 278 278 278 279 279 279 279 280 280 281 281 282 282 282 282 283 283 284 284 285 285 285 285 286 286 286 286 286 286 286 286 286 287 287 287 288 288 289 290 289 289 293 301 308 311 312 313 312 311 311 312 313 315 316 317 319 320 320 320 321 321 321 321 322 322 323 324 324 325 325 326 326 326 326
277 277 277 277 277 277 277 277 278 278 278 278 278 278 278 279 279 279 280 280 281 281 281 282 282 282 283 283 284 285 285 285 286 286 286 287 287 287 287 287 287 287 287 287 287 288 288 289 289 290 290 290 290 293 300 307 310 311 311 310 310 311 312 313 314 316 318 320 320 320 321 321 321 321 321 322 323 323 324 325 325 325 326 326 326 326
277 277 277 277 277 277 277 278 278 278 278 278 278 278 279 279 279 280 280 280 281 281 281 282 282 282 283 283 284 285 285 286 286 286 287 287 288 288 288 288 288 287 287 288 288 289 289 290 290 291 291 291 291 294 302 307 309 309 309 309 310 311 310 312 314 316 319 320 321 321 321 321 321 321 321 322 323 323 324 325 325 326 326 326 326 326
277 277 277 277 277 277 277 278 278 278 278 278 278 278 279 279 279 280 280 280 281 281 281 282 282 282 283 284 284 285 285 286 286 287 287 287 288 288 288 288 288 288 288 288 289 290 291 292 292 292 293 292 292 296 304 306 306 306 307 308 309 308 306 308 312 317 319 320 321 321 321 321 321 321 322 322 323 323 324 324 325 325 326 326 326 326
277 277 277 277 277 277 277 278 278 278 278 278 278 279 279 279 279 280 280 280 281 281 281 282 282 282 283 284 284 284 285 285 286 286 287 287 288 288 288 288 289 289 289 289 290 290 291 292 293 293 294 294 297 301 306 305 305 305 306 306 307 306 306 307 311 316 319 320 321 321 321 321 321 322 322 322 323 323 324 324 325 325 325 326 326 325
277 277 277 277 277 277 277 277 278 278 278 278 278 279 279 279 279 280 280 280 281 281 281 282 282 282 283 283 284 284 284 285 285 286 286 287 287 288 288 289 290 291 291 291 291 292 292 293 293 294 295 299 303 305 305 304 304 304 304 305 305 305 306 307 310 314 318 319 320 321 321 321 321 321 321 322 322 323 324 324 325 325 325 325 325 325
277 277 277 276 277 277 277 277 278 278 278 278 278 278 279 279 279 280 280 280 280 281 281 282 282 282 283 283 283 284 284 285 285 285 286 286 287 288 289 290 291 292 293 293 293 293 294 294 294 296 301 305 306 304 304 304 304 304 304 304 304 304 305 306 309 313 316 318 319 320 321 321 321 320 320 320 321 322 323 324 324 325 325 325 325 325
277 277 276 276 276 277 277 277 278 278 278 278 278 278 278 279 279 280 280 280 280 281 281 282 282 282 283 283 283 284 284 285 285 285 285 286 287 287 288 290 292 293 294 294 294 295 295 295 296 298 303 305 305 303 302 302 302 303 303 303 303 303 303 304 306 309 313 316 318 320 320 320 319 318 318 318 319 320 321 322 323 324 325 325 325 325
276 276 276 276 276 277 277 277 278 278 278 278 278 278 278 279 279 279 280 280 280 281 281 281 282 282 282 283 283 284 284 284 284 285 285 286 286 287 288 289 291 292 294 294 295 296 296 297 297 297 299 301 302 302 302 302 302 302 302 302 303 303 303 303 305 308 311 314 317 318 319 319 318 318 318 317 317 317 318 319 321 322 324 324 325 325
276 276 276 276 276 276 277 277 277 278 278 278 278 278 278 279 279 279 279 280 280 281 281 281 282 282 282 283 283 283 284 284 284 284 285 285 286 286 287 288 290 291 293 294 295 296 297 298 298 298 298 299 300 300 301 301 302 302 302 302 302 302 303 303 304 307 310 312 314 316 317 317 318 318 318 316 315 315 315 317 318 320 322 323 324 324
276 276 276 276 276 276 277 277 277 278 278 278 278 278 278 279 279 279 279 280 280 281 281 281 282 282 282 283 283 283 283 284 284 284 285 285 285 286 287 288 289 290 292 293 294 295 296 297 298 298 297 298 298 298 299 300 301 302 302 302 302 302 302 302 303 305 307 310 312 314 315 315 316 316 316 315 315 314 314 315 316 318 320 322 323 323
Wind_Speed
21 23 23 23 23 23 23 23 23 24 25 26 26 26 26 25 25 26 25 25 24 25 25 25 25 25 24 24 24 24 24 24 24 23 23 22 22 22 23 23 24 25 25 24 24 24 24 25 25 26 26 26 27 27 27 27 27 26 25 22 21 20 19 19 21 22 22 20 21 27 34 37 40 41 41 40 40 40 41 42 42 42 42 42 42 42
22 23 22 22 22 22 23 24 23 23 24 25 25 26 26 27 27 26 25 24 24 24 24 24 23 23 24 25 25 25 25 25 24 23 23 22 22 22 22 23 24 24 25 25 25 26 26 26 26 26 27 27 27 27 27 27 28 27 25 22 21 20 20 20 21 22 22 20 19 24 33 38 39 39 39 38 37 36 37 39 40 41 41 42 42 42
22 22 21 21 21 21 22 23 24 23 23 24 24 25 26 27 26 25 25 24 24 24 24 22 22 23 24 26 27 26 25 25 24 23 23 22 22 22 22 23 23 24 25 25 26 26 26 27 27 27 27 27 27 27 27 28 29 28 25 22 21 20 20 21 23 24 23 21 19 22 31 38 40 40 40 38 36 34 34 35 37 38 40 42 43 43
21 20 20 20 21 21 22 23 23 24 23 24 24 25 25 25 24 24 24 24 24 24 23 22 22 23 25 27 27 26 25 24 24 24 23 23 23 23 23 23 23 24 24 25 25 26 26 27 27 27 27 27 27 28 28 29 29 28 25 22 20 21 21 22 24 25 25 23 20 21 28 37 41 41 40 38 35 32 32 32 34 36 39 41 43 44
21 19 19 19 20 21 22 22 23 23 23 23 24 24 24 23 23 23 24 24 23 23 22 22 23 24 25 26 26 25 24 24 24 24 24 24 23 23 23 23 23 23 23 24 24 25 25 26 27 27 27 28 28 29 30 30 29 27 24 21 20 21 22 23 25 25 26 24 21 20 25 34 38 40 39 38 36 33 32 32 32 34 37 40 43 45
21 19 18 18 19 20 22 22 22 22 22 22 23 23 22 23 23 23 23 22 22 21 22 23 24 25 25 25 24 24 23 24 24 24 24 23 23 22 22 21 21 21 21 22 22 23 24 25 26 27 28 29 29 30 30 30 28 26 23 21 21 21 23 24 26 27 27 25 23 20 23 30 35 37 38 38 36 35 34 32 31 32 35 38 41 44
21 19 17 18 19 20 21 21 21 21 21 21 22 22 23 23 23 22 21 21 21 22 23 24 24 24 24 23 23 23 24 24 24 24 23 22 21 20 20 19 19 19 19 20 21 22 23 24 26 27 28 29 30 31 30 29 27 25 23 22 21 22 24 25 27 28 28 27 24 21 21 28 34 36 36 36 37 37 36 34 32 32 34 36 39 41
18 17 17 18 19 20 21 21 20 20 19 20 21 22 23 23 22 22 21 21 21 22 22 23 23 23 23 23 23 24 24 24 24 23 22 21 20 19 19 18 18 19 19 20 20 21 22 23 25 26 28 29 31 31 30 28 26 25 24 23 22 23 24 26 27 29 29 28 25 22 21 27 34 37 36 37 38 39 38 36 34 33 33 35 38 40
15 16 17 18 19 20 20 21 20 20 19 19 20 21 22 22 22 21 21 21 21 21 21 21 22 23 23 23 23 23 23 22 22 22 21 21 20 20 19 19 20 20 21 21 21 21 22 23 24 25 27 29 30 31 30 29 27 26 25 24 23 23 25 26 28 29 30 29 27 23 20 25 33 38 38 38 39 40 40 38 36 34 33 35 37 39
14 16 18 19 19 19 18 20 20 21 20 19 19 19 19 19 19 20 21 21 22 21 20 20 21 23 23 23 23 23 22 22 21 20 19 19 19 19 19 20 22 22 22 22 21 21 21 22 23 24 26 28 29 30 30 29 28 27 26 25 24 24 25 27 28 30 30 30 28 24 21 23 31 37 39 39 39 40 41 40 38 36 34 35 37 39
15 17 18 18 19 19 18 19 20 20 19 19 18 18 17 17 17 18 19 21 22 22 21 20 21 21 22 23 23 23 22 22 21 19 18 17 18 19 21 22 23 23 22 21 20 20 21 23 24 25 26 27 28 28 28 29 29 28 27 25 24 24 26 27 29 30 31 31 29 26 22 23 29 36 38 38 39 40 40 40 39 37 35 36 37 39
16 17 17 18 18 18 18 19 19 19 18 17 16 16 16 16 17 17 18 20 21 22 22 22 22 21 22 22 23 23 22 21 19 18 18 18 20 23 24 24 24 23 21 20 20 20 21 23 25 26 27 28 27 27 27 28 29 29 28 26 25 25 26 27 29 31 32 32 30 27 24 23 28 34 37 38 38 38 39 40 39 37 36 36 38 39
17 17 17 18 18 18 18 18 18 18 17 15 14 13 15 17 18 19 19 19 20 21 22 23 23 23 22 21 21 21 20 18 17 17 19 21 23 23 23 23 23 23 22 22 21 21 21 23 25 27 29 29 28 26 26 28 29 29 29 27 26 26 27 28 30 31 33 33 31 28 25 24 27 33 37 38 37 37 39 39 39 38 37 37 39 40
16 17 17 17 17 17 17 17 16 16 15 14 14 15 16 18 19 19 19 19 20 20 21 22 23 23 22 20 19 18 16 16 17 19 21 22 22 22 21 21 22 23 23 23 22 22 21 22 24 26 28 28 27 27 27 28 29 30 30 29 28 28 28 29 30 32 33 33 32 30 26 24 27 32 36 38 38 37 39 39 39 38 37 38 39 40
16 15 14 13 14 16 16 16 16 15 15 14 15 16 18 19 19 19 18 18 19 20 21 21 22 22 20 18 15 14 14 15 17 19 21 23 23 21 19 20 22 23 23 22 22 22 21 21 23 25 27 27 27 26 27 28 30 31 31 30 29 29 29 30 31 32 33 34 33 31 27 25 27 31 36 39 38 38 39 40 39 38 38 38 39 39
16 15 13 12 13 16 17 16 15 14 14 14 15 17 18 18 19 19 18 18 19 19 19 18 17 17 17 16 13 12 13 16 17 19 21 22 23 22 19 19 21 22 22 22 22 22 21 21 22 24 26 26 26 26 26 28 30 31 31 31 31 31 30 30 31 32 33 34 34 32 28 26 27 31 36 39 39 38 39 40 39 39 38 39 39 39
16 15 13 13 14 16 17 15 13 12 13 15 16 17 18 18 18 18 18 18 17 16 16 14 10 7 9 14 14 12 13 16 18 20 21 22 23 22 19 18 19 21 22 22 22 22 21 21 22 23 24 25 25 25 25 27 29 31 32 32 32 32 31 31 32 33 34 35 35 33 29 26 27 32 36 39 39 39 38 39 39 39 38 39 39 39
15 15 14 13 14 15 15 13 12 13 15 16 17 18 18 18 18 18 18 17 16 15 14 14 10 7 5 8 12 15 15 17 19 20 21 22 23 22 20 18 19 20 21 22 22 21 21 21 21 23 24 24 24 24 25 26 28 30 32 33 33 32 32 32 32 33 34 35 35 33 30 27 28 32 36 38 39 39 39 39 39 39 39 38 39 39
15 15 14 14 15 16 16 16 16 16 16 17 17 18 18 19 19 18 18 17 16 16 15 13 13 12 11 13 16 18 18 18 19 20 21 22 23 22 20 19 19 19 20 21 20 20 20 20 22 23 24 24 25 25 26 27 28 30 32 33 33 33 32 32 33 34 35 36 36 34 31 27 28 32 36 37 38 39 39 39 39 38 38 38 38 38
15 16 16 16 17 18 18 18 17 16 16 17 18 19 19 19 19 18 18 17 17 17 16 15 15 16 17 18 20 20 19 19 19 20 20 21 22 22 20 18 18 18 19 19 19 18 18 20 22 23 24 25 26 26 27 27 29 30 31 32 33 33 33 33 33 34 35 36 37 35 31 27 28 32 36 37 38 39 39 39 39 38 38 38 38 38
17 18 19 19 18 17 17 18 17 17 17 18 20 20 20 19 18 18 18 17 17 17 17 16 16 17 18 19 21 21 21 20 19 18 18 19 20 20 18 17 17 18 18 19 19 19 19 21 23 25 26 26 27 27 27 28 29 30 30 31 32 33 33 33 34 34 35 36 36 36 32 28 28 32 36 37 38 39 40 39 39 39 38 38 38 38
20 20 20 19 18 17 17 18 19 20 21 21 22 21 20 19 18 18 18 18 17 17 18 17 18 19 20 21 23 24 23 20 18 16 16 15 18 20 17 15 15 17 18 19 21 22 22 23 24 25 26 27 28 28 28 29 29 29 29 30 31 32 33 33 34 34 34 35 35 35 33 29 29 33 37 38 39 40 40 39 39 39 39 38 38 38
22 20 19 18 18 19 21 22 24 25 25 25 25 24 23 21 21 20 20 19 19 19 19 20 20 21 23 23 24 23 21 18 16 15 14 10 14 18 17 16 16 17 19 20 21 22 23 23 25 26 28 29 29 28 29 29 29 28 29 30 32 32 32 33 33 33 33 33 34 34 33 30 30 34 38 39 41 41 40 39 39 39 39 38 38 38
18 18 18 19 21 22 24 25 25 25 25 26 26 26 26 25 24 23 22 21 20 19 19 20 21 23 23 22 20 19 17 15 14 14 12 11 13 17 18 17 17 18 19 20 20 21 23 25 26 28 29 30 29 29 29 29 28 27 28 31 32 32 31 31 31 31 31 32 34 34 33 31 32 35 39 41 42 42 40 39 38 38 38 38 38 37
20 21 22 22 23 23 23 24 24 24 22 21 19 19 20 21 21 20 20 20 20 20 20 20 20 19 20 19 17 16 16 14 13 13 13 12 14 17 18 16 15 16 18 20 21 22 23 26 29 30 30 30 29 29 30 29 27 27 29 32 32 31 30 29 29 30 31 32 34 34 33 32 33 37 40 42 42 42 41 39 39 38 38 38 37 37
21 22 22 22 23 23 23 23 23 22 22 21 20 18 17 16 17 18 18 19 19 18 17 15 13 14 17 16 16 16 15 14 13 12 13 12 14 16 16 15 14 15 19 21 22 23 24 26 29 29 29 28 29 29 29 27 26 28 30 32 32 30 28 27 28 29 31 33 34 34 33 33 36 39 41 42 43 42 42 40 39 38 38 38 37 37
19 20 21 21 22 22 22 22 22 22 21 21 20 19 18 18 18 18 18 17 16 15 14 9 8 10 14 13 14 15 15 14 13 14 15 14 14 14 14 13 13 15 18 21 22 23 23 25 27 29 28 27 28 28 28 26 26 28 30 32 30 28 26 26 27 29 31 32 33 33 33 35 38 40 41 42 42 42 42 41 40 39 38 38 38 38
17 18 19 19 19 19 19 19 19 19 18 18 18 18 18 17 17 16 15 14 13 12 12 9 7 7 7 8 12 16 16 16 16 17 17 14 11 10 12 13 14 15 17 19 21 23 23 23 25 26 26 25 26 27 27 26 27 29 31 30 28 26 25 25 27 28 29 29 29 30 33 36 40 41 41 41 42 42 41 41 41 40 39 38 38 38
17 17 17 17 17 17 17 17 17 17 16 16 16 16 16 16 16 15 15 13 12 12 12 11 10 9 8 11 15 17 17 17 16 15 13 10 9 10 13 14 15 15 15 17 19 19 19 20 21 21 22 22 24 25 26 27 28 30 31 29 26 25 25 25 26 26 24 24 26 30 34 38 40 41 41 41 41 41 40 40 42 42 40 39 38 38
19 18 18 17 17 17 16 16 16 16 15 15 16 16 16 16 16 16 16 14 13 12 12 13 13 12 12 11 11 11 12 12 10 8 7 7 8 11 14 15 15 14 14 13 11 11 12 16 18 18 18 19 22 24 26 28 30 30 30 28 26 25 25 25 24 22 19 19 24 31 35 38 40 40 40 40 41 40 40 41 42 42 40 38 37 36
19 18 18 18 18 18 17 17 16 16 16 15 15 15 15 16 16 16 15 14 13 13 13 13 13 13 12 7 4 4 4 8 8 7 9 9 10 12 14 14 14 14 13 10 6 4 7 10 14 18 18 18 19 24 27 30 31 30 28 27 26 25 24 24 22 19 17 17 23 30 35 38 39 39 40 40 40 40 40 41 43 43 39 36 35 35
18 17 17 17 17 17 17 16 17 17 17 16 16 15 15 15 15 15 15 15 14 14 14 14 14 14 14 10 8 6 6 12 14 14 13 12 12 13 14 13 13 14 13 10 7 5 4 4 10 19 23 23 18 20 26 30 31 29 28 28 27 25 24 23 20 17 16 17 22 28 34 36 38 39 39 40 40 40 41 42 45 44 39 36 34 34
17 17 17 17 17 16 16 16 17 17 16 16 16 16 15 15 15 15 15 15 16 15 15 15 15 14 14 15 14 15 17 19 19 18 15 13 12 12 13 13 13 13 13 12 11 10 7 7 12 20 24 26 22 18 22 27 29 29 28 28 26 24 22 21 19 16 15 17 21 27 32 35 37 38 38 39 40 41 41 43 46 45 41 37 35 35
17 17 17 16 16 16 16 16 16 16 16 16 15 15 15 16 16 16 16 16 17 17 17 16 15 15 14 14 15 17 20 21 20 17 15 14 12 12 13 13 13 13 12 11 11 11 12 14 16 16 18 23 24 19 19 24 27 28 28 27 24 21 18 19 18 15 15 17 22 27 32 35 37 38 38 39 40 41 42 44 47 47 43 39 36 36
17 16 16 15 15 15 15 15 15 15 15 15 15 15 15 16 16 17 17 17 18 18 19 18 18 17 16 15 15 16 19 20 19 17 15 15 14 13 14 14 14 12 11 10 10 10 10 14 16 14 13 18 21 19 17 22 24 25 26 25 22 19 17 18 16 13 12 15 21 27 32 35 38 39 39 39 40 42 43 45 47 48 45 41 39 38
16 15 15 15 14 14 14 14 14 14 14 14 15 15 15 16 17 17 18 18 18 19 19 20 20 21 20 20 19 20 22 23 23 21 19 18 17 16 14 15 15 14 12 12 12 10 9 11 14 16 14 13 14 14 13 19 22 21 22 22 21 20 20 19 16 12 10 14 20 26 31 34 37 39 40 40 41 42 43 45 46 46 45 42 40 39
15 14 14 14 14 14 14 14 14 14 15 15 16 16 16 17 17 18 19 19 19 20 20 21 21 22 23 24 25 26 27 28 28 27 25 23 22 20 18 18 19 18 15 14 14 13 12 10 10 11 12 10 10 10 9 15 19 19 19 21 21 21 21 20 17 13 11 16 22 27 30 33 36 38 40 40 41 42 43 44 45 45 43 41 40 39
14 14 14 14 14 14 14 14 15 15 15 16 17 18 18 18 18 19 19 19 19 20 20 21 22 23 24 25 26 28 29 30 30 29 28 27 26 24 22 22 22 22 20 18 17 16 14 9 6 6 7 10 14 13 9 13 16 16 17 19 20 19 19 19 17 15 14 18 23 27 31 33 36 38 39 40 41 42 42 43 43 42 40 39 38 37
14 14 14 14 14 14 14 15 15 16 17 18 18 18 18 18 18 18 18 18 18 18 19 20 21 22 23 24 25 26 27 28 28 27 27 27 27 26 25 24 24 24 24 23 22 19 17 12 8 6 6 9 12 12 6 10 14 14 15 16 15 14 16 16 16 16 17 21 25 28 30 33 36 38 39 38 38 38 38 38 39 39 38 36 34 34
15 15 15 15 15 15 15 16 16 17 18 18 18 18 17 17 17 17 17 17 17 17 17 18 19 21 22 22 23 23 24 24 24 24 24 25 26 26 26 25 25 26 25 25 23 22 20 17 15 15 14 10 11 13 9 4 10 14 16 14 12 12 13 14 15 17 21 24 26 29 31 33 35 37 38 38 37 36 36 36 37 38 37 36 34 32
15 15 16 16 17 17 16 17 17 17 17 17 17 17 17 17 17 17 17 16 16 15 15 16 17 18 19 20 20 20 20 20 20 20 21 21 22 23 24 25 26 26 25 24 24 23 23 20 19 19 18 16 17 18 17 7 7 14 16 12 9 8 10 13 16 20 24 26 28 30 32 33 34 36 37 38 37 37 38 38 39 39 38 37 36 34
16 16 17 17 17 17 18 18 17 17 16 16 16 16 16 16 16 16 16 16 15 15 15 15 15 16 17 17 17 17 17 16 16 16 16 16 16 18 20 22 25 26 25 23 23 23 23 22 20 19 19 17 16 16 16 8 6 13 14 12 9 7 6 11 18 23 25 27 28 30 32 32 32 33 35 36 36 37 39 39 40 40 38 36 36 36
16 17 17 18 18 18 18 17 17 16 16 16 15 16 16 16 16 16 15 15 15 15 14 14 14 14 15 15 16 16 16 15 14 13 13 13 14 15 17 20 22 23 23 21 20 21 22 22 21 20 20 20 17 16 14 6 7 13 13 12 11 8 3 9 17 24 27 28 29 30 31 31 32 34 35 35 35 36 37 39 40 40 38 36 35 34
17 17 18 18 18 17 17 16 16 16 16 16 15 16 17 17 17 16 15 14 14 14 14 15 15 14 13 13 14 16 17 16 15 15 14 13 13 14 16 19 20 21 21 20 19 18 18 18 19 20 21 21 19 17 14 6 8 11 11 11 10 6 4 8 15 23 27 29 29 30 30 31 32 34 35 34 34 35 36 37 38 38 38 37 36 34
17 18 18 18 18 17 17 17 17 17 16 16 15 16 17 17 17 16 15 14 14 15 14 15 14 12 11 11 13 15 17 18 18 17 16 15 14 14 16 17 18 18 18 18 18 18 16 16 16 18 20 20 18 14 9 7 11 12 11 10 8 6 7 8 13 20 26 29 30 30 31 32 33 33 32 32 32 34 36 37 37 37 37 37 36 35
18 18 18 18 18 18 17 17 17 17 17 16 16 16 17 17 17 16 15 15 14 14 14 14 12 10 9 11 12 14 15 17 18 18 18 18 17 17 17 18 17 16 16 17 17 17 17 17 18 18 17 12 8 6 10 13 14 14 13 11 8 6 6 8 13 20 26 29 31 32 33 34 34 31 29 29 31 32 34 36 38 38 38 38 37 37
18 18 19 19 18 18 18 17 17 17 17 16 16 17 17 18 17 17 16 16 15 15 14 13 12 10 10 11 12 12 13 15 16 18 19 19 20 21 21 20 18 15 14 15 15 15 14 16 17 14 9 6 7 11 14 17 17 15 12 9 7 6 6 8 13 20 27 31 33 34 35 34 31 28 27 28 29 30 31 34 36 38 39 39 39 38
18 18 19 19 18 18 18 18 18 17 17 17 17 18 18 18 18 17 17 17 16 15 14 13 12 11 11 11 12 13 13 14 16 17 19 20 21 23 24 23 20 16 13 12 11 10 9 11 14 12 9 10 11 13 15 17 16 13 9 6 5 4 5 7 12 18 26 31 34 36 36 33 30 28 27 27 26 26 28 31 34 36 39 39 39 39
18 18 18 18 18 18 18 18 18 18 17 17 18 18 18 18 18 18 17 17 16 15 14 13 13 12 11 12 13 14 15 15 16 18 19 21 22 23 24 25 24 21 17 14 11 8 6 10 19 24 24 22 19 16 16 16 16 13 10 6 5 5 6 9 14 20 25 29 31 33 34 33 32 31 30 27 25 24 26 27 30 33 37 39 39 39
18 18 18 18 18 18 18 17 17 17 17 18 18 18 18 19 19 18 18 17 16 15 15 14 13 13 12 13 14 15 16 16 17 18 20 22 23 24 23 24 24 22 19 16 13 9 5 6 17 27 30 28 24 19 16 16 16 15 11 7 5 5 8 12 17 21 25 26 28 30 31 31 32 33 32 28 25 23 24 25 27 30 35 38 39 39
19 18 18 18 18 18 18 17 17 17 17 18 17 17 18 18 18 19 18 18 17 16 16 15 15 14 13 14 15 16 16 16 16 17 19 22 24 24 23 23 21 18 14 11 9 7 4 3 8 18 26 29 26 22 19 16 16 14 11 7 5 6 9 13 18 23 26 27 27 28 29 29 29 30 30 29 26 22 21 23 25 28 33 36 38 38
Wind_Direction
304 306 308 309 311 311 311 312 314 315 314 314 314 314 314 313 312 310 310 309 309 309 310 310 309 309 308 308 307 306 306 304 303 301 299 297 294 291 288 285 285 286 286 287 287 287 286 285 284 284 284 284 284 284 285 287 289 289 284 272 260 255 256 257 260 264 267 263 246 230 222 219 218 216 215 215 216 217 218 218 218 217 215 214 213 212
303 304 305 307 309 310 309 311 313 313 313 312 311 312 312 311 310 310 310 309 309 309 309 309 309 308 307 307 307 306 305 304 303 301 299 297 294 291 288 286 284 284 284 284 285 285 285 284 283 282 282 281 281 281 283 285 287 286 282 272 261 254 253 254 256 259 262 262 250 231 221 219 219 218 217 215 215 216 216 217 216 216 215 214 213 212
302 303 304 306 308 309 308 310 312 312 311 310 309 309 310 309 308 308 309 308 308 309 309 309 308 307 307 307 307 307 307 305 303 301 299 297 294 291 288 286 284 283 283 283 283 284 284 282 281 280 280 279 278 279 282 284 285 284 281 273 263 256 253 253 254 257 260 261 253 234 221 218 218 218 217 215 214 214 215 215 215 215 215 214 214 213
298 300 302 305 307 307 307 308 310 311 311 310 309 309 309 308 307 307 307 307 307 308 309 308 308 307 307 307 308 308 308 305 303 301 300 298 295 292 289 286 284 283 282 282 282 282 282 281 281 280 279 277 277 279 281 283 283 282 280 274 265 258 254 253 254 257 259 261 256 239 222 216 216 217 216 214 213 214 214 214 214 214 214 215 214 214
293 295 299 303 305 306 306 307 309 310 311 310 310 310 310 309 308 307 307 306 307 308 309 309 308 307 307 307 308 308 307 305 303 302 300 298 296 293 290 287 285 283 281 281 280 280 281 281 280 279 277 276 276 278 281 281 280 278 277 273 266 259 255 254 255 257 260 261 258 244 224 216 214 215 215 214 214 216 217 215 214 214 214 214 214 214
291 293 296 300 303 304 305 307 309 310 311 311 311 311 310 309 308 306 305 305 307 309 310 309 309 308 307 306 306 306 305 304 304 303 302 300 298 295 293 289 286 283 281 280 280 280 280 280 279 277 276 275 276 278 280 280 278 276 275 272 266 260 255 254 255 257 260 262 260 249 230 218 214 214 214 214 216 218 220 219 217 216 215 214 213 213
291 292 296 299 301 303 304 305 307 309 310 311 311 311 310 309 307 305 303 305 308 310 311 310 309 308 307 306 305 305 306 307 307 306 306 304 302 299 296 292 289 285 283 281 280 280 279 279 277 275 274 275 276 279 280 278 276 274 273 271 265 259 254 253 254 257 259 261 261 252 234 220 216 215 215 217 219 221 222 222 221 219 217 215 213 212
291 294 298 301 302 303 303 303 305 307 309 309 310 310 310 309 308 306 306 307 310 312 312 311 310 309 307 307 307 307 307 308 308 308 309 309 307 304 300 297 294 290 287 284 282 280 279 277 276 275 275 275 277 279 279 277 274 271 270 268 263 257 254 253 254 256 258 260 260 255 238 221 216 217 218 220 222 223 224 224 223 221 219 216 214 213
293 299 301 301 302 302 303 303 304 306 307 307 306 307 308 308 308 308 309 311 312 313 312 312 311 310 308 308 308 308 308 306 305 305 306 306 306 305 303 301 299 295 291 287 284 281 278 276 275 275 276 277 278 278 277 274 271 269 267 264 260 255 252 253 254 255 257 258 259 255 241 221 215 215 218 220 223 224 225 224 224 223 221 217 215 214
297 300 301 301 300 300 301 302 303 305 306 305 303 302 302 304 308 311 313 313 313 313 313 312 311 310 309 309 309 308 307 306 304 302 301 302 303 303 303 302 300 298 294 290 286 281 277 274 273 273 275 277 278 277 274 271 268 265 262 259 255 252 251 252 253 254 256 257 257 255 244 222 212 212 215 218 221 224 225 225 225 224 222 219 217 216
301 301 301 300 300 300 299 300 301 304 305 305 304 303 302 305 310 313 314 312 312 312 313 312 310 309 308 308 308 308 308 307 306 305 303 304 305 306 306 305 303 300 297 293 288 281 274 270 268 269 271 274 275 274 271 268 264 261 256 253 250 249 250 251 253 253 254 255 256 254 246 225 212 209 212 215 220 223 225 225 225 224 222 220 218 217
302 301 300 300 300 300 300 300 301 302 304 306 307 307 307 309 311 312 310 308 309 311 312 312 309 307 305 304 305 306 307 306 305 306 309 310 310 311 311 310 309 306 302 298 290 282 273 267 265 264 266 269 270 269 266 265 261 257 251 246 245 246 248 250 252 252 253 253 254 253 247 229 213 208 209 213 217 222 224 225 224 223 221 220 219 218
299 299 299 298 298 299 300 301 302 302 302 303 305 306 308 309 311 310 306 303 305 308 310 311 309 305 303 302 303 304 305 305 306 309 312 312 313 314 315 313 311 309 307 303 296 287 276 269 265 263 264 265 266 264 262 261 257 253 247 242 240 242 246 249 251 251 251 251 252 251 247 232 216 208 207 210 215 220 224 225 224 222 221 219 218 218
298 298 298 297 296 297 298 298 298 297 297 299 301 303 305 308 309 307 304 302 304 307 309 307 305 304 303 304 305 305 306 309 313 315 314 313 313 314 314 312 309 307 306 303 298 291 282 275 269 266 265 265 264 261 259 256 254 250 244 239 238 239 243 247 249 250 250 249 250 250 246 234 218 209 207 209 213 219 223 224 224 222 220 218 217 217
298 298 297 295 294 294 294 294 292 291 292 296 301 304 305 306 306 305 304 303 305 308 309 306 304 302 302 304 306 309 313 318 320 319 316 313 312 312 313 311 308 305 303 299 296 292 286 281 275 272 268 266 263 260 257 255 251 248 243 239 237 238 241 245 248 250 249 248 248 249 246 235 220 210 207 208 212 218 222 223 223 221 219 217 216 216
296 295 292 291 290 291 290 289 288 288 293 299 303 304 304 304 303 303 302 303 305 307 308 306 305 304 303 304 307 313 319 324 324 320 316 311 310 310 312 310 306 302 299 296 294 293 291 286 280 276 272 269 264 260 257 255 251 247 243 240 239 239 242 245 248 250 249 248 247 247 245 235 221 210 207 208 211 217 221 222 221 220 218 216 215 214
293 291 289 288 287 288 288 288 288 292 298 301 302 302 300 299 299 299 299 301 303 304 304 303 303 303 304 305 307 314 323 326 323 319 314 309 307 308 310 307 301 297 295 293 293 295 296 292 285 280 276 271 267 263 260 256 251 246 243 241 240 241 243 246 248 250 249 247 246 246 245 236 222 211 206 207 211 216 220 220 219 218 217 215 214 214
289 288 286 286 286 288 290 292 295 298 300 300 300 299 297 296 295 295 295 296 297 297 296 297 296 295 299 302 303 308 319 323 321 316 311 306 304 305 307 304 297 292 290 289 292 296 298 295 290 285 280 275 271 267 263 257 251 246 243 242 242 243 244 247 249 250 249 247 246 246 245 236 222 211 206 207 210 215 218 219 218 217 216 215 214 213
288 287 286 286 287 288 289 290 292 294 295 296 297 297 296 294 292 291 290 290 289 288 289 290 290 290 290 291 296 303 313 317 316 312 307 303 301 302 304 302 296 289 287 287 291 296 298 296 292 288 284 280 276 271 264 257 250 246 244 244 244 244 245 247 249 250 249 247 245 245 244 237 222 211 206 207 210 214 217 217 216 215 215 215 214 213
288 286 283 283 283 284 283 283 284 286 289 292 293 293 291 290 289 287 286 283 282 283 284 285 285 286 287 289 293 300 308 312 311 306 302 299 298 298 300 300 293 287 285 287 291 295 296 295 292 289 285 281 277 272 265 257 250 247 246 246 245 245 245 247 248 249 248 246 244 243 244 237 222 211 207 208 211 214 216 216 215 214 215 215 215 214
285 281 278 276 275 276 277 279 281 283 286 288 288 286 284 283 282 281 280 279 280 281 282 282 282 283 287 290 294 298 303 305 302 299 298 297 295 296 297 296 291 287 287 290 294 296 296 294 292 289 285 281 277 271 264 257 251 248 247 246 244 243 243 245 247 248 248 246 243 243 243 237 223 211 207 209 211 214 215 215 214 214 215 215 215 215
278 275 274 272 270 271 276 281 284 285 285 282 279 277 275 274 274 274 275 277 278 280 281 280 281 284 288 290 292 295 297 294 290 290 295 295 293 293 296 296 295 293 293 295 297 300 300 297 293 289 285 281 276 269 261 256 252 251 249 245 242 240 241 243 245 246 246 245 243 243 243 238 223 210 207 209 211 213 214 214 214 214 215 215 216 215
272 270 272 274 276 278 281 284 285 285 282 275 270 266 264 263 264 266 269 272 273 275 278 280 283 286 288 288 289 290 291 287 283 283 288 287 288 291 297 300 301 299 296 296 300 303 303 298 293 289 287 283 275 266 259 254 252 250 248 243 239 237 238 240 242 244 244 244 243 244 244 238 222 210 207 208 210 212 213 214 214 214 215 216 216 215
284 285 287 287 287 286 285 283 281 278 275 269 264 261 260 259 258 260 263 267 270 274 280 286 289 289 288 288 287 287 288 287 285 283 281 281 285 290 295 300 300 298 296 297 301 303 301 297 293 290 287 282 273 263 256 253 250 246 243 238 234 233 235 237 239 241 242 242 243 245 245 236 221 209 205 207 208 210 211 213 213 214 214 215 215 215
298 296 293 291 289 286 283 280 278 277 277 277 276 273 270 267 265 266 268 271 275 280 285 288 288 287 288 290 290 289 289 288 284 279 277 280 285 288 291 294 296 297 298 300 302 302 300 296 293 291 288 281 271 261 255 250 245 240 236 231 229 228 231 234 237 239 241 242 244 245 243 232 216 205 203 205 206 208 210 212 213 213 213 214 214 213
293 291 290 289 288 287 287 287 288 289 290 293 295 294 292 289 286 283 281 280 281 282 283 283 282 284 287 290 290 290 290 289 283 276 275 280 284 286 287 290 294 298 300 302 302 301 298 294 292 291 287 280 269 259 255 249 241 233 229 225 223 224 228 232 236 240 242 244 245 245 239 224 209 202 201 203 205 206 208 210 211 211 211 212 212 211
295 294 293 293 293 293 294 294 294 293 292 291 289 290 292 294 291 286 281 279 280 281 281 281 282 286 288 288 288 288 291 291 285 279 276 275 277 280 284 293 301 304 303 302 301 299 295 291 290 290 286 278 268 260 255 247 236 227 222 219 219 222 227 233 238 241 244 246 246 240 229 214 203 198 199 201 203 205 207 209 210 209 209 210 210 209
303 301 300 299 299 297 296 295 294 293 291 289 286 285 287 288 285 280 277 280 285 286 283 281 283 287 289 289 290 291 292 290 287 282 278 270 267 276 287 300 307 307 306 305 303 301 296 290 290 291 288 279 269 262 256 245 231 220 215 214 217 222 228 235 240 244 247 246 240 229 216 204 197 196 198 200 202 203 206 208 208 208 208 208 207 206
312 309 307 305 303 302 300 300 299 297 294 291 288 285 285 284 282 280 281 288 293 291 283 280 280 282 286 291 293 294 292 288 284 281 279 275 275 285 295 304 309 311 313 313 312 309 304 298 296 295 289 279 268 260 252 237 222 212 210 212 217 223 229 235 241 247 250 242 227 213 203 196 194 195 197 199 201 202 204 206 206 205 206 205 204 202
317 315 313 312 310 309 308 307 306 303 298 293 289 286 284 284 285 285 287 289 289 284 278 277 277 280 284 291 294 294 290 285 281 281 293 306 300 296 302 306 309 313 321 324 324 319 313 309 307 303 294 278 261 247 235 221 210 205 207 211 217 223 229 235 242 248 248 232 212 200 195 192 193 194 197 199 200 201 203 204 203 203 202 201 199 198
316 315 312 312 312 312 311 308 307 305 302 298 294 289 287 285 285 286 287 284 278 275 274 275 276 278 280 286 291 290 287 282 281 290 304 312 303 296 302 305 307 311 320 329 335 329 319 314 315 315 311 290 256 230 215 207 203 203 207 211 217 223 229 236 242 247 242 223 205 196 193 192 193 194 197 198 199 200 201 202 201 200 198 196 194 193
315 311 308 308 308 308 307 305 304 304 303 301 299 297 293 289 286 284 281 277 273 271 272 273 274 275 274 272 271 271 273 276 279 286 296 299 295 293 297 299 302 306 310 315 312 304 306 311 313 315 316 309 277 228 205 201 203 206 210 212 216 222 229 236 244 246 237 220 206 198 195 194 193 194 196 197 198 199 200 200 199 197 195 192 190 189
313 311 308 307 306 305 305 304 304 303 302 301 300 299 296 293 288 283 278 275 273 270 269 269 271 272 271 269 267 268 270 272 276 280 286 287 287 289 292 294 296 299 302 299 289 278 273 277 294 302 306 306 291 252 211 202 205 210 212 212 215 220 228 235 243 245 234 217 207 202 200 197 195 194 195 197 197 198 199 199 198 196 193 190 187 186
313 311 309 307 306 306 306 306 305 304 302 300 299 297 295 292 288 284 280 276 273 270 267 265 265 267 268 269 269 268 269 270 273 276 277 277 278 283 288 289 288 290 292 290 281 273 270 272 279 290 298 300 292 268 223 202 202 209 211 211 212 217 224 230 238 242 230 214 204 201 201 199 197 195 196 196 197 197 197 198 197 196 193 189 186 183
315 313 311 309 309 308 308 308 307 306 303 300 298 296 294 291 289 286 283 280 277 273 270 265 262 260 261 263 266 269 270 270 272 274 273 271 273 278 283 282 280 279 279 277 277 278 276 275 276 280 289 295 291 273 223 196 195 202 206 207 211 217 223 226 234 242 234 212 201 198 197 196 195 195 196 196 195 195 196 196 196 195 193 190 187 183
317 315 314 313 312 312 311 311 310 308 305 303 301 299 297 294 292 289 287 285 281 277 274 270 266 262 258 257 258 262 266 271 274 275 272 270 270 273 276 276 275 273 270 269 271 274 278 281 281 281 282 286 285 269 220 186 184 193 199 204 211 219 224 227 234 242 235 208 196 193 192 191 191 192 194 195 194 193 194 194 194 193 192 190 188 185
319 318 318 317 316 316 315 315 313 312 309 307 306 305 303 300 297 295 293 290 287 284 279 275 271 267 263 260 259 260 265 271 275 276 275 273 270 268 267 270 271 270 266 266 268 272 276 280 282 282 280 278 272 259 220 170 169 182 192 200 209 218 223 226 233 240 227 201 190 187 187 186 186 187 190 192 191 191 191 191 191 190 190 190 189 186
325 323 323 323 322 321 319 318 316 315 313 310 310 309 308 305 303 300 298 295 292 289 285 281 277 274 271 268 266 266 269 272 276 278 279 277 273 267 264 266 269 269 266 263 263 267 273 275 275 275 274 277 271 256 214 164 157 166 178 191 202 212 220 225 233 235 219 198 188 184 183 182 182 184 187 187 186 185 184 184 185 186 187 187 187 186
329 328 327 327 326 325 322 319 318 317 316 315 314 313 311 309 306 304 301 299 296 293 290 286 283 281 280 277 274 273 273 275 278 280 281 279 274 268 264 264 267 270 270 267 262 260 263 265 263 260 264 279 282 276 235 163 152 155 165 181 195 210 219 226 231 227 211 195 185 180 178 178 179 180 183 181 178 176 174 175 177 179 180 180 180 180
333 332 331 330 328 326 324 321 320 320 320 319 318 316 315 312 311 309 308 305 302 300 298 294 290 287 286 284 282 280 280 280 281 282 281 279 276 271 267 265 267 270 272 269 262 257 254 257 258 258 261 264 278 286 288 196 158 163 176 182 193 208 217 221 222 214 202 191 182 176 174 173 174 175 176 175 173 171 169 168 170 173 174 173 171 170
335 334 332 331 329 327 326 324 324 324 324 322 321 320 319 317 314 313 313 312 310 308 306 303 298 294 292 290 289 288 286 285 284 282 281 280 279 276 272 270 270 271 270 267 262 256 250 251 254 255 256 255 264 273 278 260 167 159 168 168 174 189 201 208 206 201 194 187 181 175 172 170 170 171 171 171 170 169 169 168 169 170 171 172 170 167
337 335 332 330 329 328 327 329 330 330 330 328 325 323 322 321 319 316 315 313 313 314 314 311 306 301 297 296 297 297 296 293 291 289 289 289 288 285 280 277 275 272 269 265 261 255 250 248 250 251 251 249 255 264 268 255 152 136 147 142 137 145 181 203 200 194 188 182 176 172 170 169 168 168 168 168 168 169 169 169 169 170 169 170 170 169
336 335 333 331 330 330 331 333 334 334 334 333 331 329 328 327 325 321 317 314 315 317 318 317 313 307 301 300 303 307 310 309 309 307 306 305 301 295 288 285 281 277 270 263 258 255 252 250 250 249 247 246 251 257 255 230 133 118 123 127 128 128 151 201 196 189 182 176 172 170 169 168 168 167 166 166 166 167 168 168 169 169 169 168 168 168
336 335 335 334 334 335 337 337 338 338 338 336 334 332 333 332 330 326 321 318 319 321 322 322 320 315 309 306 308 312 317 321 324 326 323 318 310 302 296 293 290 285 275 263 257 255 255 255 252 249 246 246 250 252 244 199 122 108 115 132 146 163 219 214 193 181 175 171 169 168 167 166 165 164 163 163 164 165 166 166 166 167 167 167 166 165
338 339 340 340 339 339 340 340 341 341 341 340 337 336 336 336 334 331 326 323 324 326 326 327 326 322 317 315 316 318 320 324 327 329 329 326 320 314 310 306 303 297 287 273 263 259 260 261 261 258 254 248 244 236 209 140 105 98 106 124 145 177 214 210 185 173 167 163 163 163 163 162 160 158 158 159 161 163 164 164 164 165 165 165 165 164
343 343 343 343 342 341 341 342 343 344 344 344 342 341 339 338 337 335 333 331 329 330 331 332 330 324 318 318 320 322 323 324 325 326 326 327 328 329 330 330 324 313 299 287 278 273 274 277 276 269 256 239 213 158 123 104 94 90 93 108 125 143 167 170 165 161 158 156 156 156 158 158 156 153 152 153 157 160 162 164 164 164 164 164 164 164
344 345 344 344 343 342 342 343 345 346 346 346 345 344 343 342 341 340 339 338 336 334 335 335 332 326 319 320 322 323 323 322 321 322 325 328 332 337 341 344 340 326 307 295 290 291 295 306 305 290 253 191 120 89 85 87 87 88 92 105 123 142 150 149 150 151 151 151 151 151 153 153 151 147 146 147 150 154 158 162 164 164 164 165 165 165
345 345 345 344 343 343 344 345 347 348 347 346 345 345 346 346 346 344 342 341 340 339 338 337 335 332 328 328 329 328 326 324 324 325 328 332 335 339 344 347 345 336 320 307 300 302 320 349 6 24 63 90 89 79 75 80 83 85 90 107 129 137 126 118 127 136 142 146 149 151 152 151 148 145 142 141 143 146 151 156 160 163 164 165 165 165
346 346 347 346 346 345 345 346 347 349 348 347 346 345 346 348 349 348 344 343 342 341 340 340 339 338 336 336 336 336 335 333 332 333 334 337 339 341 343 346 346 343 336 329 320 314 330 21 39 50 63 71 77 79 77 80 82 85 91 102 122 128 117 105 111 121 131 138 144 149 152 152 150 147 143 141 140 141 144 149 154 158 162 165 166 166
348 348 349 349 348 347 346 346 347 348 348 348 346 345 345 348 350 350 348 346 345 345 344 345 344 343 342 341 342 342 341 340 339 339 340 342 343 343 343 345 345 343 340 339 338 327 301 15 43 52 60 65 68 70 73 76 80 82 81 82 98 115 110 103 106 114 123 130 136 142 145 147 148 147 145 142 139 138 140 143 148 154 159 163 165 166
349 350 351 351 350 349 347 347 348 349 349 349 347 346 346 348 350 350 350 350 349 348 348 349 350 349 347 346 345 345 344 344 342 341 341 342 344 345 344 345 344 341 336 338 341 332 302 323 38 47 49 53 57 61 64 68 73 72 65 60 74 96 99 98 100 106 112 119 126 132 136 139 142 144 144 142 138 136 137 140 145 150 154 159 163 165